{"data":{"norad_id":62062,"epoch":"2026-09-21T06:49:21.004032Z","epoch_age_seconds":113449,"freshness":"FRESH","line1":"1 62062U 24217F   26264.28427088  .00110763  00000+0  90531-3 0  9999","line2":"2 62062  53.1586 187.0595 0001373 116.6825 243.4333 15.69753447105834","mean_motion":15.69753447,"eccentricity":0.0001373,"inclination_deg":53.1586,"raan_deg":187.0595,"arg_perigee_deg":116.6825,"mean_anomaly_deg":243.4333,"bstar":0.00090531,"rev_number":10583,"period_min":91.734151165715,"perigee_km":358.67733298102,"apogee_km":360.52751622701,"semimajor_km":6737.739424604,"source":"CELESTRAK","updated_at":"2026-09-22T09:00:49.492479Z"}}